QPF
0.00 0.01 0.01 0.00 0.01 0.01 0.01 0.02 0.02 0.03 0.05 0.08 0.10 0.11 0.10 0.07 0.07 0.06 0.05 0.06 0.06 0.06 0.07 0.07 0.06 0.05 0.05 0.05 0.05 0.06 0.06 0.06 0.05 0.05 0.04 0.04 0.03 0.03 0.04 0.04 0.03 0.02 0.03
0.01 0.01 0.01 0.00 0.01 0.01 0.01 0.01 0.02 0.03 0.05 0.05 0.07 0.11 0.12 0.11 0.08 0.06 0.05 0.05 0.05 0.06 0.06 0.07 0.05 0.06 0.06 0.05 0.05 0.05 0.05 0.05 0.05 0.05 0.04 0.03 0.03 0.02 0.04 0.04 0.02 0.01 0.02
0.01 0.01 0.01 0.01 0.01 0.01 0.01 0.02 0.04 0.03 0.02 0.03 0.04 0.05 0.05 0.06 0.05 0.05 0.05 0.05 0.05 0.05 0.05 0.05 0.04 0.05 0.05 0.05 0.05 0.04 0.04 0.04 0.04 0.03 0.02 0.02 0.01 0.02 0.06 0.05 0.03 0.02 0.01
0.00 0.01 0.01 0.03 0.03 0.03 0.02 0.02 0.04 0.04 0.03 0.03 0.04 0.04 0.03 0.03 0.03 0.03 0.03 0.03 0.04 0.04 0.03 0.04 0.04 0.03 0.03 0.03 0.03 0.03 0.03 0.03 0.03 0.03 0.03 0.03 0.02 0.03 0.04 0.04 0.04 0.03 0.02
0.00 0.01 0.04 0.06 0.04 0.03 0.03 0.03 0.03 0.04 0.04 0.04 0.04 0.04 0.03 0.01 0.01 0.01 0.01 0.01 0.01 0.01 0.01 0.01 0.01 0.01 0.02 0.02 0.01 0.02 0.03 0.04 0.04 0.04 0.03 0.03 0.04 0.04 0.04 0.03 0.06 0.07 0.04
0.01 0.03 0.07 0.07 0.04 0.03 0.03 0.04 0.05 0.05 0.04 0.02 0.02 0.02 0.02 0.01 0.01 0.01 0.01 0.01 0.00 0.01 0.01 0.01 0.01 0.01 0.02 0.02 0.01 0.02 0.03 0.03 0.03 0.03 0.04 0.04 0.04 0.03 0.03 0.03 0.03 0.05 0.06
0.02 0.04 0.05 0.05 0.04 0.03 0.04 0.05 0.05 0.05 0.04 0.02 0.01 0.01 0.01 0.01 0.01 0.01 0.01 0.01 0.00 0.01 0.01 0.02 0.01 0.01 0.02 0.03 0.02 0.02 0.02 0.03 0.03 0.04 0.04 0.03 0.02 0.02 0.03 0.03 0.03 0.03 0.05
0.04 0.04 0.05 0.05 0.04 0.04 0.04 0.05 0.04 0.04 0.03 0.01 0.01 0.01 0.00 0.00 0.01 0.01 0.00 0.00 0.00 0.01 0.01 0.02 0.01 0.01 0.01 0.02 0.02 0.02 0.04 0.05 0.07 0.05 0.03 0.03 0.02 0.02 0.03 0.03 0.03 0.03 0.03
0.06 0.04 0.04 0.04 0.05 0.05 0.06 0.06 0.06 0.04 0.02 0.01 0.01 0.00 0.00 0.00 0.00 0.00 0.00 0.00 0.00 0.00 0.00 0.01 0.01 0.01 0.01 0.02 0.02 0.02 0.03 0.04 0.04 0.03 0.02 0.02 0.02 0.02 0.02 0.03 0.03 0.02 0.01
0.10 0.08 0.06 0.05 0.05 0.04 0.04 0.03 0.03 0.02 0.01 0.01 0.00 0.00 0.00 0.00 0.00 0.00 0.00 0.01 0.01 0.01 0.00 0.00 0.00 0.00 0.01 0.01 0.01 0.02 0.02 0.02 0.03 0.03 0.03 0.03 0.02 0.02 0.01 0.01 0.01 0.01 0.01
0.12 0.12 0.13 0.12 0.10 0.05 0.03 0.02 0.02 0.01 0.00 0.00 0.00 0.00 0.00 0.00 0.00 0.01 0.01 0.01 0.01 0.01 0.01 0.00 0.00 0.00 0.01 0.01 0.01 0.01 0.02 0.03 0.03 0.02 0.02 0.02 0.01 0.01 0.01 0.01 0.01 0.01 0.00
0.13 0.13 0.13 0.12 0.11 0.08 0.04 0.03 0.02 0.01 0.00 0.00 0.00 0.00 0.00 0.00 0.00 0.01 0.02 0.01 0.01 0.00 0.00 0.00 0.00 0.00 0.00 0.01 0.01 0.01 0.01 0.00 0.00 0.00 0.00 0.00 0.00 0.00 0.01 0.01 0.01 0.01 0.00
0.11 0.09 0.08 0.08 0.07 0.06 0.05 0.03 0.02 0.02 0.01 0.01 0.02 0.02 0.02 0.02 0.02 0.02 0.01 0.01 0.00 0.00 0.00 0.00 0.00 0.00 0.00 0.00 0.00 0.00 0.00 0.00 0.00 0.00 0.00 0.00 0.00 0.00 0.00 0.00 0.01 0.01 0.01
0.10 0.08 0.09 0.10 0.12 0.11 0.07 0.07 0.06 0.05 0.04 0.03 0.03 0.03 0.04 0.04 0.04 0.03 0.03 0.03 0.02 0.01 0.00 0.00 0.00 0.00 0.00 0.00 0.00 0.00 0.00 0.00 0.00 0.00 0.00 0.00 0.00 0.01 0.01 0.01 0.01 0.01 0.01
0.12 0.12 0.11 0.09 0.08 0.13 0.10 0.08 0.07 0.06 0.05 0.04 0.04 0.04 0.04 0.05 0.05 0.06 0.07 0.06 0.04 0.02 0.01 0.00 0.00 0.00 0.00 0.00 0.00 0.00 0.00 0.00 0.00 0.00 0.00 0.01 0.01 0.01 0.01 0.02 0.02 0.02 0.01
0.15 0.17 0.14 0.09 0.07 0.07 0.05 0.05 0.05 0.04 0.04 0.03 0.03 0.04 0.05 0.05 0.04 0.04 0.03 0.03 0.02 0.01 0.00 0.00 0.00 0.00 0.00 0.00 0.00 0.00 0.00 0.01 0.01 0.00 0.01 0.01 0.01 0.01 0.01 0.01 0.02 0.02 0.02
0.07 0.08 0.09 0.07 0.05 0.04 0.03 0.03 0.03 0.02 0.02 0.02 0.02 0.02 0.02 0.02 0.03 0.04 0.03 0.02 0.01 0.00 0.00 0.00 0.00 0.00 0.00 0.00 0.00 0.00 0.00 0.00 0.01 0.01 0.01 0.01 0.01 0.02 0.02 0.02 0.02 0.03 0.03
0.05 0.05 0.05 0.06 0.05 0.03 0.03 0.02 0.02 0.01 0.01 0.01 0.01 0.01 0.01 0.01 0.01 0.02 0.02 0.01 0.00 0.00 0.00 0.00 0.00 0.00 0.00 0.00 0.00 0.00 0.00 0.00 0.00 0.00 0.01 0.01 0.01 0.01 0.01 0.01 0.01 0.01 0.01
0.06 0.06 0.05 0.05 0.05 0.05 0.05 0.03 0.02 0.01 0.01 0.00 0.01 0.01 0.01 0.01 0.01 0.01 0.01 0.01 0.00 0.00 0.00 0.00 0.00 0.00 0.00 0.00 0.00 0.00 0.01 0.01 0.01 0.01 0.01 0.01 0.01 0.01 0.01 0.01 0.01 0.01 0.01
0.09 0.10 0.10 0.10 0.09 0.08 0.07 0.06 0.04 0.02 0.01 0.01 0.01 0.01 0.01 0.01 0.01 0.01 0.01 0.01 0.01 0.01 0.01 0.00 0.00 0.00 0.00 0.00 0.00 0.00 0.01 0.01 0.01 0.01 0.01 0.02 0.02 0.01 0.01 0.01 0.01 0.00 0.00
0.13 0.13 0.13 0.13 0.11 0.09 0.07 0.07 0.06 0.04 0.02 0.02 0.01 0.02 0.02 0.01 0.01 0.01 0.01 0.01 0.01 0.01 0.01 0.01 0.01 0.01 0.00 0.00 0.00 0.00 0.00 0.01 0.01 0.01 0.01 0.01 0.01 0.01 0.01 0.01 0.01 0.01 0.01
0.14 0.14 0.14 0.12 0.09 0.08 0.08 0.07 0.07 0.05 0.03 0.02 0.02 0.02 0.02 0.01 0.01 0.01 0.00 0.01 0.01 0.01 0.00 0.00 0.00 0.00 0.00 0.00 0.00 0.00 0.00 0.00 0.00 0.00 0.00 0.00 0.00 0.00 0.01 0.01 0.01 0.01 0.01
0.11 0.10 0.09 0.08 0.06 0.06 0.06 0.05 0.04 0.04 0.03 0.03 0.02 0.02 0.01 0.01 0.01 0.00 0.00 0.00 0.00 0.00 0.00 0.00 0.00 0.00 0.00 0.00 0.00 0.00 0.00 0.00 0.00 0.01 0.01 0.00 0.00 0.00 0.00 0.00 0.00 0.00 0.00
0.09 0.11 0.10 0.09 0.07 0.06 0.05 0.05 0.04 0.04 0.03 0.02 0.02 0.01 0.01 0.01 0.01 0.01 0.01 0.01 0.01 0.00 0.00 0.00 0.00 0.00 0.00 0.00 0.00 0.00 0.00 0.01 0.01 0.00 0.00 0.00 0.00 0.00 0.00 0.00 0.00 0.00 0.00
0.07 0.07 0.07 0.06 0.06 0.06 0.05 0.05 0.03 0.03 0.03 0.03 0.02 0.02 0.02 0.01 0.01 0.01 0.01 0.01 0.01 0.01 0.01 0.01 0.01 0.00 0.00 0.01 0.01 0.01 0.01 0.01 0.01 0.01 0.01 0.01 0.01 0.01 0.01 0.01 0.01 0.01 0.01
0.07 0.06 0.06 0.06 0.06 0.06 0.06 0.06 0.04 0.04 0.03 0.03 0.03 0.03 0.02 0.02 0.02 0.02 0.02 0.02 0.02 0.02 0.01 0.01 0.01 0.01 0.01 0.01 0.01 0.01 0.01 0.02 0.02 0.02 0.02 0.01 0.01 0.01 0.01 0.01 0.01 0.01 0.01
MSLP
1015.71 1016.26 1016.81 1017.32 1017.72 1017.99 1018.13 1018.16 1018.11 1018.01 1017.90 1017.78 1017.66 1017.54 1017.40 1017.22 1017.01 1016.76 1016.51 1016.26 1016.04 1015.88 1015.78 1015.74 1015.76 1015.83 1015.95 1016.10 1016.31 1016.58 1016.92 1017.35 1017.87 1018.47 1019.12 1019.80 1020.44 1021.02 1021.49 1021.83 1022.05 1022.15 1022.15
1015.65 1016.26 1016.87 1017.42 1017.87 1018.18 1018.34 1018.40 1018.36 1018.28 1018.17 1018.07 1017.98 1017.88 1017.77 1017.64 1017.47 1017.27 1017.04 1016.80 1016.57 1016.36 1016.20 1016.07 1015.99 1015.95 1015.96 1016.04 1016.17 1016.40 1016.72 1017.16 1017.70 1018.35 1019.06 1019.80 1020.52 1021.16 1021.71 1022.12 1022.41 1022.57 1022.64
1015.54 1016.21 1016.88 1017.47 1017.95 1018.28 1018.46 1018.53 1018.50 1018.43 1018.34 1018.26 1018.19 1018.14 1018.08 1018.00 1017.89 1017.75 1017.57 1017.37 1017.15 1016.94 1016.73 1016.55 1016.39 1016.27 1016.20 1016.19 1016.25 1016.41 1016.69 1017.10 1017.63 1018.27 1019.00 1019.76 1020.51 1021.20 1021.80 1022.29 1022.66 1022.91 1023.06
1015.36 1016.09 1016.80 1017.43 1017.92 1018.26 1018.46 1018.52 1018.51 1018.44 1018.37 1018.31 1018.28 1018.26 1018.26 1018.25 1018.22 1018.15 1018.04 1017.89 1017.71 1017.52 1017.31 1017.10 1016.91 1016.73 1016.60 1016.51 1016.51 1016.61 1016.82 1017.17 1017.65 1018.24 1018.93 1019.67 1020.42 1021.13 1021.77 1022.32 1022.76 1023.10 1023.35
1015.10 1015.89 1016.63 1017.27 1017.77 1018.11 1018.29 1018.36 1018.35 1018.30 1018.25 1018.21 1018.22 1018.25 1018.31 1018.36 1018.40 1018.40 1018.37 1018.29 1018.17 1018.02 1017.84 1017.65 1017.44 1017.25 1017.08 1016.95 1016.89 1016.93 1017.07 1017.34 1017.73 1018.25 1018.86 1019.55 1020.25 1020.95 1021.60 1022.19 1022.70 1023.14 1023.49
1014.76 1015.58 1016.33 1016.96 1017.46 1017.79 1017.98 1018.05 1018.05 1018.02 1017.99 1017.99 1018.03 1018.11 1018.21 1018.32 1018.42 1018.49 1018.53 1018.52 1018.47 1018.38 1018.25 1018.10 1017.93 1017.75 1017.58 1017.44 1017.35 1017.32 1017.40 1017.58 1017.89 1018.30 1018.82 1019.41 1020.05 1020.71 1021.35 1021.96 1022.52 1023.02 1023.47
1014.33 1015.14 1015.88 1016.51 1016.99 1017.32 1017.52 1017.61 1017.64 1017.64 1017.65 1017.68 1017.76 1017.87 1018.01 1018.16 1018.30 1018.42 1018.51 1018.56 1018.58 1018.56 1018.50 1018.42 1018.31 1018.18 1018.04 1017.91 1017.81 1017.76 1017.78 1017.89 1018.10 1018.41 1018.82 1019.32 1019.87 1020.46 1021.06 1021.66 1022.25 1022.80 1023.32
1013.77 1014.56 1015.29 1015.90 1016.38 1016.72 1016.95 1017.08 1017.16 1017.21 1017.27 1017.34 1017.45 1017.58 1017.73 1017.90 1018.05 1018.20 1018.33 1018.43 1018.51 1018.56 1018.58 1018.58 1018.55 1018.49 1018.41 1018.33 1018.25 1018.20 1018.19 1018.25 1018.38 1018.60 1018.91 1019.30 1019.76 1020.28 1020.82 1021.39 1021.97 1022.54 1023.10
1013.07 1013.84 1014.55 1015.16 1015.65 1016.04 1016.32 1016.53 1016.68 1016.80 1016.91 1017.03 1017.16 1017.30 1017.45 1017.60 1017.75 1017.89 1018.03 1018.16 1018.28 1018.40 1018.51 1018.59 1018.66 1018.69 1018.70 1018.69 1018.66 1018.63 1018.62 1018.65 1018.73 1018.88 1019.11 1019.41 1019.78 1020.21 1020.68 1021.20 1021.74 1022.30 1022.85
1012.25 1012.98 1013.68 1014.31 1014.86 1015.32 1015.69 1016.00 1016.25 1016.46 1016.64 1016.80 1016.94 1017.07 1017.20 1017.32 1017.43 1017.55 1017.68 1017.82 1017.98 1018.15 1018.33 1018.51 1018.67 1018.81 1018.91 1018.97 1019.01 1019.03 1019.04 1019.06 1019.12 1019.22 1019.39 1019.62 1019.91 1020.26 1020.67 1021.12 1021.61 1022.12 1022.64
1011.32 1012.04 1012.74 1013.42 1014.04 1014.61 1015.10 1015.53 1015.90 1016.21 1016.46 1016.66 1016.82 1016.93 1017.01 1017.08 1017.15 1017.23 1017.33 1017.47 1017.65 1017.87 1018.12 1018.37 1018.63 1018.85 1019.05 1019.19 1019.30 1019.36 1019.41 1019.45 1019.50 1019.58 1019.71 1019.89 1020.12 1020.41 1020.75 1021.13 1021.55 1021.99 1022.46
1010.37 1011.08 1011.81 1012.55 1013.28 1013.97 1014.60 1015.17 1015.66 1016.07 1016.40 1016.63 1016.79 1016.87 1016.91 1016.92 1016.93 1016.96 1017.03 1017.16 1017.36 1017.61 1017.91 1018.23 1018.56 1018.86 1019.12 1019.34 1019.50 1019.61 1019.69 1019.75 1019.81 1019.88 1019.99 1020.14 1020.34 1020.58 1020.86 1021.18 1021.53 1021.90 1022.29
1009.50 1010.20 1010.98 1011.80 1012.63 1013.45 1014.22 1014.92 1015.53 1016.03 1016.41 1016.68 1016.83 1016.88 1016.87 1016.82 1016.78 1016.76 1016.81 1016.93 1017.13 1017.41 1017.74 1018.11 1018.48 1018.84 1019.15 1019.40 1019.59 1019.73 1019.83 1019.91 1019.97 1020.06 1020.16 1020.30 1020.48 1020.69 1020.93 1021.20 1021.49 1021.79 1022.10
1008.82 1009.53 1010.35 1011.23 1012.16 1013.08 1013.97 1014.78 1015.48 1016.06 1016.48 1016.76 1016.90 1016.92 1016.87 1016.78 1016.69 1016.65 1016.67 1016.79 1017.00 1017.28 1017.64 1018.03 1018.42 1018.79 1019.11 1019.37 1019.57 1019.71 1019.81 1019.89 1019.96 1020.05 1020.16 1020.30 1020.47 1020.67 1020.89 1021.12 1021.36 1021.61 1021.85
1008.47 1009.17 1010.00 1010.93 1011.91 1012.90 1013.86 1014.74 1015.50 1016.11 1016.55 1016.83 1016.95 1016.96 1016.88 1016.76 1016.65 1016.59 1016.61 1016.73 1016.94 1017.24 1017.59 1017.98 1018.37 1018.72 1019.03 1019.26 1019.44 1019.55 1019.64 1019.70 1019.76 1019.85 1019.96 1020.11 1020.29 1020.49 1020.71 1020.92 1021.14 1021.34 1021.54
1008.50 1009.17 1009.98 1010.90 1011.89 1012.90 1013.87 1014.76 1015.52 1016.13 1016.58 1016.84 1016.96 1016.95 1016.86 1016.74 1016.63 1016.58 1016.61 1016.73 1016.95 1017.25 1017.60 1017.97 1018.32 1018.64 1018.90 1019.08 1019.21 1019.28 1019.33 1019.37 1019.42 1019.50 1019.61 1019.77 1019.96 1020.17 1020.40 1020.61 1020.82 1021.01 1021.18
1008.91 1009.52 1010.27 1011.13 1012.07 1013.02 1013.95 1014.80 1015.53 1016.11 1016.52 1016.78 1016.88 1016.87 1016.80 1016.70 1016.61 1016.58 1016.64 1016.78 1017.00 1017.30 1017.63 1017.96 1018.28 1018.54 1018.74 1018.87 1018.94 1018.96 1018.97 1018.98 1019.01 1019.08 1019.20 1019.36 1019.57 1019.79 1020.03 1020.25 1020.46 1020.64 1020.80
1009.62 1010.13 1010.78 1011.53 1012.36 1013.21 1014.04 1014.80 1015.47 1015.99 1016.37 1016.61 1016.72 1016.72 1016.68 1016.61 1016.57 1016.58 1016.66 1016.83 1017.06 1017.34 1017.65 1017.95 1018.21 1018.42 1018.57 1018.64 1018.66 1018.65 1018.62 1018.60 1018.62 1018.69 1018.81 1018.98 1019.20 1019.43 1019.67 1019.91 1020.12 1020.30 1020.46
1010.48 1010.86 1011.37 1011.98 1012.66 1013.37 1014.08 1014.74 1015.31 1015.78 1016.12 1016.35 1016.46 1016.50 1016.50 1016.48 1016.49 1016.54 1016.66 1016.84 1017.08 1017.35 1017.63 1017.89 1018.12 1018.28 1018.38 1018.42 1018.41 1018.37 1018.33 1018.31 1018.33 1018.40 1018.52 1018.70 1018.92 1019.15 1019.40 1019.63 1019.84 1020.02 1020.16
1011.30 1011.55 1011.90 1012.35 1012.88 1013.44 1014.01 1014.56 1015.04 1015.45 1015.77 1016.00 1016.14 1016.21 1016.26 1016.30 1016.36 1016.45 1016.60 1016.79 1017.02 1017.28 1017.53 1017.77 1017.96 1018.10 1018.18 1018.21 1018.20 1018.16 1018.14 1018.13 1018.16 1018.24 1018.37 1018.55 1018.76 1018.99 1019.21 1019.43 1019.62 1019.78 1019.92
1011.92 1012.03 1012.24 1012.54 1012.92 1013.35 1013.80 1014.25 1014.67 1015.04 1015.35 1015.59 1015.76 1015.88 1015.98 1016.07 1016.16 1016.29 1016.45 1016.64 1016.87 1017.10 1017.33 1017.54 1017.72 1017.85 1017.93 1017.98 1017.99 1018.00 1018.01 1018.04 1018.10 1018.20 1018.34 1018.52 1018.71 1018.91 1019.11 1019.29 1019.45 1019.57 1019.68
1012.22 1012.22 1012.31 1012.49 1012.75 1013.08 1013.45 1013.84 1014.22 1014.58 1014.89 1015.15 1015.36 1015.53 1015.67 1015.79 1015.92 1016.06 1016.22 1016.40 1016.60 1016.81 1017.01 1017.20 1017.37 1017.52 1017.63 1017.71 1017.78 1017.84 1017.91 1017.99 1018.09 1018.22 1018.37 1018.53 1018.70 1018.87 1019.02 1019.15 1019.26 1019.34 1019.40
1012.14 1012.07 1012.08 1012.19 1012.39 1012.67 1013.00 1013.37 1013.74 1014.11 1014.44 1014.74 1014.98 1015.19 1015.36 1015.50 1015.63 1015.76 1015.91 1016.06 1016.23 1016.40 1016.59 1016.77 1016.94 1017.10 1017.25 1017.39 1017.52 1017.65 1017.78 1017.92 1018.06 1018.21 1018.37 1018.52 1018.66 1018.78 1018.88 1018.95 1019.00 1019.02 1019.03
1011.75 1011.65 1011.64 1011.74 1011.92 1012.20 1012.53 1012.91 1013.31 1013.69 1014.06 1014.38 1014.65 1014.88 1015.06 1015.21 1015.33 1015.44 1015.56 1015.67 1015.80 1015.95 1016.10 1016.27 1016.45 1016.64 1016.83 1017.02 1017.21 1017.40 1017.59 1017.78 1017.96 1018.13 1018.28 1018.42 1018.52 1018.59 1018.63 1018.65 1018.63 1018.60 1018.55
1011.17 1011.10 1011.12 1011.24 1011.46 1011.77 1012.14 1012.55 1012.97 1013.39 1013.78 1014.12 1014.42 1014.65 1014.83 1014.96 1015.06 1015.15 1015.22 1015.30 1015.39 1015.51 1015.64 1015.80 1015.99 1016.20 1016.42 1016.65 1016.89 1017.13 1017.36 1017.59 1017.79 1017.96 1018.11 1018.21 1018.28 1018.31 1018.29 1018.25 1018.18 1018.10 1018.01
1010.58 1010.56 1010.65 1010.84 1011.12 1011.48 1011.90 1012.35 1012.80 1013.24 1013.65 1014.00 1014.29 1014.52 1014.68 1014.80 1014.88 1014.93 1014.97 1015.02 1015.08 1015.17 1015.30 1015.45 1015.64 1015.86 1016.10 1016.36 1016.62 1016.89 1017.14 1017.38 1017.58 1017.75 1017.87 1017.95 1017.98 1017.96 1017.91 1017.82 1017.71 1017.59 1017.46
Thickness
5772 5768 5764 5760 5756 5753 5749 5747 5744 5742 5739 5737 5735 5733 5731 5730 5729 5727 5726 5724 5723 5722 5721 5719 5717 5716 5714 5712 5709 5707 5703 5700 5691 5684 5680 5677 5674 5672 5669 5668 5665 5664 5661
5772 5767 5762 5759 5755 5751 5748 5745 5742 5739 5736 5734 5732 5729 5727 5725 5724 5723 5721 5720 5718 5717 5715 5714 5712 5711 5709 5707 5705 5701 5698 5695 5690 5681 5675 5671 5668 5665 5663 5661 5658 5656 5653
5772 5766 5761 5757 5753 5749 5746 5743 5740 5736 5733 5730 5728 5726 5723 5721 5719 5718 5716 5715 5713 5711 5710 5708 5707 5706 5703 5701 5699 5696 5692 5689 5685 5679 5671 5666 5662 5659 5656 5653 5650 5647 5644
5770 5764 5759 5755 5752 5748 5744 5740 5736 5733 5730 5727 5724 5722 5720 5718 5715 5713 5711 5710 5708 5706 5705 5703 5702 5700 5698 5696 5693 5690 5687 5682 5677 5673 5666 5661 5656 5653 5650 5647 5642 5639 5636
5769 5762 5758 5754 5751 5746 5742 5737 5734 5730 5726 5723 5721 5717 5715 5714 5711 5709 5707 5705 5703 5701 5699 5698 5696 5695 5693 5691 5688 5685 5681 5676 5671 5667 5661 5656 5651 5647 5645 5641 5637 5633 5629
5767 5761 5757 5752 5747 5742 5738 5734 5730 5725 5721 5719 5716 5713 5711 5709 5706 5705 5703 5700 5698 5696 5693 5691 5690 5689 5687 5685 5682 5680 5677 5672 5667 5662 5657 5652 5647 5643 5639 5636 5632 5628 5623
5766 5760 5755 5750 5744 5740 5735 5729 5725 5721 5717 5714 5711 5709 5706 5703 5701 5700 5698 5695 5692 5690 5687 5686 5685 5683 5681 5679 5676 5673 5669 5666 5663 5659 5654 5649 5644 5640 5635 5631 5626 5623 5618
5762 5757 5751 5745 5740 5735 5730 5725 5721 5717 5713 5710 5706 5704 5701 5699 5696 5694 5692 5689 5686 5683 5681 5680 5678 5676 5675 5672 5670 5665 5661 5658 5656 5653 5649 5645 5641 5636 5632 5627 5622 5615 5610
5758 5753 5748 5742 5736 5730 5726 5721 5716 5712 5708 5705 5702 5699 5696 5693 5691 5689 5687 5683 5680 5677 5675 5673 5672 5670 5668 5666 5663 5659 5655 5651 5648 5645 5642 5638 5634 5630 5625 5620 5614 5611 5606
5755 5751 5745 5739 5733 5727 5722 5717 5712 5708 5704 5701 5697 5694 5692 5689 5686 5683 5681 5678 5674 5671 5668 5666 5665 5664 5662 5659 5656 5653 5648 5644 5641 5638 5634 5630 5626 5622 5618 5614 5610 5605 5601
5752 5746 5740 5735 5729 5724 5718 5713 5708 5704 5699 5695 5692 5689 5686 5684 5681 5678 5675 5672 5669 5665 5663 5660 5658 5657 5655 5652 5650 5646 5642 5638 5634 5631 5627 5623 5619 5615 5611 5607 5603 5600 5596
5746 5740 5736 5731 5726 5720 5714 5709 5704 5699 5695 5690 5686 5683 5681 5678 5676 5673 5670 5667 5664 5660 5657 5654 5652 5650 5648 5645 5642 5639 5635 5631 5628 5624 5620 5616 5612 5608 5604 5600 5596 5593 5589
5741 5735 5731 5726 5721 5716 5711 5705 5700 5695 5691 5686 5683 5679 5676 5673 5670 5668 5665 5661 5658 5655 5651 5648 5645 5643 5641 5638 5635 5631 5628 5625 5621 5618 5614 5610 5605 5601 5597 5593 5589 5585 5582
5737 5731 5725 5720 5715 5710 5706 5702 5697 5692 5688 5684 5680 5676 5673 5669 5665 5662 5659 5656 5652 5649 5645 5642 5639 5636 5633 5630 5627 5624 5621 5617 5614 5610 5607 5602 5598 5594 5590 5586 5582 5578 5575
5733 5726 5720 5715 5711 5706 5701 5697 5694 5691 5688 5683 5678 5674 5669 5666 5663 5659 5656 5651 5647 5644 5639 5636 5632 5629 5626 5623 5620 5616 5613 5610 5606 5602 5599 5595 5591 5587 5583 5578 5574 5571 5568
5727 5721 5716 5710 5705 5701 5696 5690 5686 5684 5682 5678 5675 5671 5667 5664 5660 5655 5650 5646 5642 5638 5634 5630 5626 5623 5620 5617 5614 5610 5607 5603 5600 5596 5592 5588 5584 5580 5576 5571 5567 5563 5560
5722 5716 5711 5706 5701 5697 5692 5687 5681 5676 5674 5671 5669 5666 5662 5658 5654 5650 5645 5640 5636 5632 5628 5625 5622 5618 5615 5611 5608 5605 5601 5597 5593 5589 5585 5581 5577 5573 5569 5564 5560 5556 5552
5714 5710 5705 5700 5697 5692 5687 5682 5678 5673 5669 5665 5662 5659 5656 5652 5648 5644 5639 5634 5629 5625 5623 5620 5616 5613 5609 5605 5602 5599 5595 5590 5586 5582 5579 5575 5571 5567 5563 5559 5554 5550 5546
5707 5703 5698 5694 5690 5686 5681 5676 5672 5668 5665 5660 5656 5652 5649 5645 5641 5637 5632 5629 5626 5622 5618 5614 5611 5607 5604 5600 5596 5593 5589 5584 5580 5576 5572 5568 5564 5560 5557 5553 5548 5543 5539
5699 5695 5691 5687 5683 5679 5675 5671 5667 5663 5659 5656 5652 5649 5643 5638 5635 5631 5627 5625 5622 5618 5614 5610 5606 5602 5599 5595 5590 5586 5582 5578 5574 5570 5567 5562 5558 5554 5551 5547 5543 5539 5535
5691 5688 5684 5680 5677 5675 5671 5667 5663 5659 5655 5652 5649 5645 5639 5637 5633 5629 5625 5621 5618 5614 5610 5606 5601 5597 5593 5589 5585 5580 5576 5573 5568 5564 5560 5556 5552 5548 5545 5541 5537 5533 5529
5683 5680 5678 5675 5672 5668 5665 5662 5658 5654 5651 5648 5644 5639 5632 5630 5627 5624 5620 5617 5613 5609 5606 5601 5597 5592 5588 5584 5580 5575 5571 5567 5563 5558 5554 5551 5547 5543 5539 5535 5531 5527 5524
5677 5674 5672 5669 5665 5661 5658 5654 5651 5648 5646 5643 5639 5634 5628 5624 5622 5619 5616 5612 5608 5605 5601 5596 5592 5587 5583 5578 5574 5569 5565 5561 5557 5552 5548 5544 5541 5537 5533 5529 5525 5522 5518
5669 5667 5664 5661 5658 5655 5651 5647 5645 5642 5639 5636 5632 5629 5625 5621 5618 5615 5611 5608 5604 5600 5595 5591 5586 5582 5578 5572 5568 5563 5559 5555 5550 5546 5542 5538 5534 5530 5526 5522 5519 5515 5512
5660 5659 5656 5653 5651 5648 5644 5641 5638 5635 5632 5629 5626 5623 5620 5616 5613 5610 5606 5602 5598 5594 5590 5585 5581 5576 5572 5567 5562 5557 5553 5548 5543 5539 5535 5531 5527 5523 5519 5516 5512 5509 5505
5652 5650 5648 5645 5643 5640 5636 5633 5630 5628 5625 5623 5621 5618 5615 5612 5608 5604 5601 5596 5592 5588 5583 5579 5575 5570 5565 5560 5555 5550 5546 5541 5536 5532 5527 5523 5520 5516 5512 5509 5505 5501 5498